HXA9790 ZSCN-ZSSS

Flight info

Callsign HXA9790
Flight time 1h 9m
Altitude 22600
Route P34 J612 JDZ H17P644 H166 ELNEX G204 JTN
Aircraft A320/M-SDE2E3FGILRWXY/LB1

Departure

Time 2026-05-06 14:53
Airport Nanchang Changbei International Airport (ZSCN)

Arrival

Time 2026-05-06 16:02
Airport Shanghai Hongqiao International Airport (ZSSS)
Time Latitude Longitude Altitude Speed Heading
2026-05-06 14:31 28.86192 115.90539 139 ft 0 kts 111°
2026-05-06 14:42 28.86194 115.90535 139 ft 2 kts 111°
2026-05-06 14:43 28.86200 115.90518 142 ft 2 kts 114°
2026-05-06 14:43 28.86207 115.90501 142 ft 2 kts 119°
2026-05-06 14:43 28.86216 115.90486 142 ft 2 kts 140°
2026-05-06 14:43 28.86231 115.90479 142 ft 2 kts 203°
2026-05-06 14:44 28.86235 115.90481 142 ft 0 kts 202°
2026-05-06 14:48 28.86221 115.90475 142 ft 5 kts 202°
2026-05-06 14:48 28.86192 115.90461 143 ft 4 kts 202°
2026-05-06 14:48 28.86166 115.90448 141 ft 4 kts 202°
2026-05-06 14:48 28.86143 115.90437 141 ft 3 kts 202°
2026-05-06 14:49 28.86124 115.90428 138 ft 3 kts 202°
2026-05-06 14:49 28.86087 115.90410 141 ft 13 kts 204°
2026-05-06 14:49 28.86024 115.90332 140 ft 15 kts 273°
2026-05-06 14:49 28.85991 115.90241 139 ft 13 kts 212°
2026-05-06 14:50 28.85915 115.90201 139 ft 11 kts 202°
2026-05-06 14:50 28.85846 115.90168 138 ft 10 kts 202°
2026-05-06 14:50 28.85783 115.90136 138 ft 11 kts 204°
2026-05-06 14:50 28.85709 115.90098 138 ft 13 kts 204°
2026-05-06 14:51 28.85593 115.90044 137 ft 23 kts 204°
2026-05-06 14:51 28.85426 115.89949 135 ft 31 kts 208°
2026-05-06 14:51 28.85214 115.89858 133 ft 33 kts 212°
2026-05-06 14:51 28.85060 115.89786 132 ft 18 kts 200°
2026-05-06 14:52 28.85055 115.89673 128 ft 17 kts 297°
2026-05-06 14:52 28.85102 115.89595 127 ft 3 kts
2026-05-06 14:52 28.85124 115.89606 128 ft 9 kts 21°
2026-05-06 14:52 28.85371 115.89723 134 ft 74 kts 22°
2026-05-06 14:53 28.86033 115.90045 138 ft 133 kts 23°
2026-05-06 14:53 28.87044 115.90524 257 ft 168 kts 22°
2026-05-06 14:53 28.88084 115.90975 986 ft 162 kts 21°
2026-05-06 14:53 28.89163 115.91434 1558 ft 169 kts 21°
2026-05-06 14:54 28.90284 115.91901 2115 ft 173 kts 20°
2026-05-06 14:54 28.91419 115.92374 2672 ft 174 kts 21°
2026-05-06 14:54 28.92563 115.92857 3219 ft 176 kts 21°
2026-05-06 14:54 28.93755 115.93365 3576 ft 193 kts 21°
2026-05-06 14:55 28.95090 115.93938 3827 ft 216 kts 21°
2026-05-06 14:55 28.95937 115.94291 3962 ft 230 kts 17°
2026-05-06 14:56 28.96478 115.94433 4091 ft 235 kts
2026-05-06 14:57 28.98154 115.94206 4435 ft 255 kts 336°
2026-05-06 14:57 28.99837 115.93444 5080 ft 264 kts 339°
2026-05-06 14:57 29.01606 115.92839 5964 ft 265 kts 342°
2026-05-06 14:57 29.03390 115.92308 6858 ft 265 kts 343°
2026-05-06 14:58 29.05186 115.91786 7705 ft 267 kts 343°
2026-05-06 14:58 29.06986 115.91248 8511 ft 269 kts 342°
2026-05-06 14:58 29.08797 115.90686 9321 ft 271 kts 342°
2026-05-06 14:58 29.10614 115.90107 10089 ft 273 kts 341°
2026-05-06 14:59 29.12451 115.89512 10794 ft 275 kts 341°
2026-05-06 14:59 29.14303 115.88906 11492 ft 278 kts 341°
2026-05-06 14:59 29.16173 115.88291 12213 ft 281 kts 340°
2026-05-06 14:59 29.18061 115.87669 12929 ft 284 kts 340°
2026-05-06 15:00 29.19967 115.87038 13624 ft 287 kts 340°
2026-05-06 15:00 29.21900 115.86396 14231 ft 291 kts 340°
2026-05-06 15:00 29.23858 115.85746 14829 ft 295 kts 339°
2026-05-06 15:00 29.25839 115.85088 15391 ft 299 kts 339°
2026-05-06 15:01 29.27819 115.84333 15965 ft 300 kts 329°
2026-05-06 15:01 29.29561 115.83061 16532 ft 296 kts 313°
2026-05-06 15:01 29.30948 115.81285 16797 ft 306 kts 298°
2026-05-06 15:01 29.31899 115.79052 16926 ft 321 kts 289°
2026-05-06 15:02 29.33023 115.76747 17051 ft 344 kts 303°
2026-05-06 15:02 29.34804 115.74783 17184 ft 369 kts 321°
2026-05-06 15:02 29.37182 115.73439 17327 ft 392 kts 335°
2026-05-06 15:02 29.39760 115.72339 17688 ft 400 kts 335°
2026-05-06 15:03 29.42386 115.71212 18161 ft 404 kts 335°
2026-05-06 15:03 29.44984 115.70087 18565 ft 407 kts 335°
2026-05-06 15:03 29.47639 115.68932 19009 ft 409 kts 334°
2026-05-06 15:03 29.50306 115.67769 19489 ft 411 kts 334°
2026-05-06 15:04 29.52980 115.66601 19960 ft 412 kts 334°
2026-05-06 15:04 29.55667 115.65422 20436 ft 414 kts 334°
2026-05-06 15:04 29.58360 115.64236 20898 ft 416 kts 334°
2026-05-06 15:04 29.61072 115.63043 21340 ft 418 kts 334°
2026-05-06 15:05 29.63796 115.61850 21757 ft 420 kts 334°
2026-05-06 15:05 29.66542 115.60651 22188 ft 423 kts 334°
2026-05-06 15:05 29.69299 115.59448 22444 ft 424 kts 334°
2026-05-06 15:05 29.72076 115.58234 22503 ft 430 kts 334°
2026-05-06 15:06 29.74884 115.57004 22517 ft 433 kts 334°
2026-05-06 15:06 29.77698 115.55770 22502 ft 433 kts 334°
2026-05-06 15:06 29.80516 115.54534 22489 ft 433 kts 334°
2026-05-06 15:06 29.83326 115.53303 22490 ft 433 kts 334°
2026-05-06 15:07 29.86143 115.52067 22504 ft 433 kts 334°
2026-05-06 15:07 29.88957 115.50826 22497 ft 433 kts 334°
2026-05-06 15:07 29.91769 115.49583 22494 ft 432 kts 334°
2026-05-06 15:07 29.94540 115.48358 22491 ft 433 kts 334°
2026-05-06 15:08 29.97354 115.47115 22491 ft 433 kts 334°
2026-05-06 15:08 30.00168 115.45872 22494 ft 433 kts 334°
2026-05-06 15:08 30.02981 115.44630 22498 ft 432 kts 334°
2026-05-06 15:08 30.05787 115.43389 22486 ft 432 kts 334°
2026-05-06 15:09 30.08595 115.42148 22496 ft 432 kts 334°
2026-05-06 15:09 30.11405 115.40911 22490 ft 432 kts 334°
2026-05-06 15:09 30.14214 115.39675 22479 ft 432 kts 334°
2026-05-06 15:09 30.17018 115.38438 22482 ft 431 kts 334°
2026-05-06 15:10 30.19824 115.37198 22475 ft 431 kts 334°
2026-05-06 15:10 30.22626 115.35958 22475 ft 431 kts 334°
2026-05-06 15:10 30.25423 115.34715 22472 ft 431 kts 334°
2026-05-06 15:10 30.28231 115.33465 22477 ft 431 kts 334°
2026-05-06 15:11 30.31032 115.32216 22502 ft 431 kts 334°
2026-05-06 15:11 30.33834 115.30970 22495 ft 431 kts 334°
2026-05-06 15:11 30.36663 115.29804 22491 ft 435 kts 341°
2026-05-06 15:11 30.39692 115.29353 22492 ft 444 kts 356°
2026-05-06 15:12 30.42767 115.29858 22494 ft 453 kts 12°
2026-05-06 15:12 30.45671 115.31343 22484 ft 461 kts 29°
2026-05-06 15:12 30.48148 115.33724 22479 ft 466 kts 46°
2026-05-06 15:12 30.50185 115.36667 22474 ft 468 kts 50°
2026-05-06 15:13 30.52181 115.39652 22475 ft 469 kts 50°
2026-05-06 15:13 30.54150 115.42608 22476 ft 469 kts 50°
2026-05-06 15:13 30.56168 115.45646 22491 ft 469 kts 50°
2026-05-06 15:13 30.58134 115.48608 22485 ft 470 kts 50°
2026-05-06 15:14 30.60127 115.51613 22484 ft 470 kts 50°
2026-05-06 15:14 30.62122 115.54620 22500 ft 470 kts 50°
2026-05-06 15:14 30.64118 115.57628 22500 ft 470 kts 50°
2026-05-06 15:14 30.66120 115.60642 22503 ft 470 kts 50°
2026-05-06 15:15 30.68116 115.63648 22502 ft 470 kts 50°
2026-05-06 15:15 30.70114 115.66660 22519 ft 470 kts 50°
2026-05-06 15:15 30.72108 115.69676 22523 ft 470 kts 50°
2026-05-06 15:15 30.74101 115.72697 22536 ft 470 kts 51°
2026-05-06 15:16 30.76090 115.75719 22533 ft 470 kts 51°
2026-05-06 15:16 30.78076 115.78738 22546 ft 470 kts 51°
2026-05-06 15:16 30.80064 115.81756 22545 ft 470 kts 51°
2026-05-06 15:16 30.82057 115.84775 22545 ft 470 kts 51°
2026-05-06 15:17 30.84052 115.87797 22547 ft 470 kts 51°
2026-05-06 15:17 30.85974 115.90882 22548 ft 471 kts 57°
2026-05-06 15:17 30.87667 115.94158 22556 ft 472 kts 58°
2026-05-06 15:17 30.89352 115.97445 22551 ft 472 kts 58°
2026-05-06 15:18 30.91030 116.00720 22550 ft 472 kts 58°
2026-05-06 15:18 30.92713 116.04005 22567 ft 472 kts 58°
2026-05-06 15:18 30.94391 116.07279 22562 ft 472 kts 58°
2026-05-06 15:18 30.96077 116.10562 22563 ft 471 kts 58°
2026-05-06 15:19 30.97754 116.13834 22568 ft 471 kts 58°
2026-05-06 15:19 30.99406 116.17064 22562 ft 470 kts 58°
2026-05-06 15:19 31.01076 116.20340 22559 ft 470 kts 58°
2026-05-06 15:19 31.02741 116.23616 22557 ft 470 kts 58°
2026-05-06 15:20 31.04409 116.26894 22540 ft 470 kts 58°
2026-05-06 15:20 31.06078 116.30167 22530 ft 469 kts 58°
2026-05-06 15:20 31.07746 116.33443 22527 ft 470 kts 58°
2026-05-06 15:20 31.09414 116.36719 22530 ft 470 kts 58°
2026-05-06 15:21 31.11081 116.39999 22527 ft 470 kts 58°
2026-05-06 15:21 31.12743 116.43272 22536 ft 470 kts 58°
2026-05-06 15:21 31.14412 116.46556 22522 ft 470 kts 58°
2026-05-06 15:21 31.16079 116.49838 22528 ft 470 kts 58°
2026-05-06 15:22 31.17746 116.53127 22525 ft 471 kts 58°
2026-05-06 15:22 31.19414 116.56423 22526 ft 471 kts 58°
2026-05-06 15:22 31.21074 116.59712 22518 ft 471 kts 58°
2026-05-06 15:22 31.22737 116.63012 22519 ft 470 kts 58°
2026-05-06 15:23 31.23831 116.65186 22517 ft 470 kts 58°
2026-05-06 15:23 31.26051 116.69593 22521 ft 470 kts 58°
2026-05-06 15:23 31.27146 116.71765 22523 ft 469 kts 58°
2026-05-06 15:23 31.28804 116.75051 22524 ft 469 kts 59°
2026-05-06 15:24 31.30458 116.78336 22531 ft 469 kts 59°
2026-05-06 15:24 31.32110 116.81624 22524 ft 469 kts 59°
2026-05-06 15:24 31.33762 116.84916 22519 ft 469 kts 59°
2026-05-06 15:24 31.35414 116.88205 22498 ft 468 kts 58°
2026-05-06 15:25 31.37063 116.91486 22499 ft 468 kts 58°
2026-05-06 15:25 31.38714 116.94777 22498 ft 468 kts 59°
2026-05-06 15:25 31.40357 116.98066 22496 ft 468 kts 59°
2026-05-06 15:25 31.41995 117.01354 22489 ft 468 kts 59°
2026-05-06 15:26 31.43632 117.04642 22489 ft 468 kts 59°
2026-05-06 15:26 31.45277 117.07938 22499 ft 468 kts 59°
2026-05-06 15:26 31.46921 117.11228 22496 ft 468 kts 59°
2026-05-06 15:26 31.48569 117.14526 22489 ft 468 kts 59°
2026-05-06 15:27 31.50209 117.17816 22482 ft 468 kts 59°
2026-05-06 15:27 31.51850 117.21118 22484 ft 468 kts 59°
2026-05-06 15:27 31.53489 117.24419 22485 ft 469 kts 59°
2026-05-06 15:27 31.55033 117.27784 22484 ft 469 kts 65°
2026-05-06 15:28 31.56151 117.31378 22492 ft 469 kts 75°
2026-05-06 15:28 31.56860 117.35107 22493 ft 468 kts 79°
2026-05-06 15:28 31.57520 117.38853 22492 ft 469 kts 79°
2026-05-06 15:28 31.58183 117.42599 22493 ft 469 kts 79°
2026-05-06 15:29 31.58846 117.46340 22491 ft 469 kts 79°
2026-05-06 15:29 31.59506 117.50039 22501 ft 469 kts 79°
2026-05-06 15:29 31.60174 117.53788 22507 ft 469 kts 79°
2026-05-06 15:29 31.60818 117.57536 22508 ft 468 kts 82°
2026-05-06 15:30 31.61213 117.61324 22517 ft 468 kts 85°
2026-05-06 15:30 31.61583 117.65114 22517 ft 468 kts 85°
2026-05-06 15:30 31.61956 117.68905 22517 ft 468 kts 85°
2026-05-06 15:30 31.62334 117.72719 22518 ft 468 kts 85°
2026-05-06 15:31 31.62711 117.76518 22521 ft 468 kts 84°
2026-05-06 15:31 31.63085 117.80309 22517 ft 468 kts 85°
2026-05-06 15:31 31.63457 117.84099 22518 ft 468 kts 85°
2026-05-06 15:32 31.64198 117.91690 22513 ft 467 kts 85°
2026-05-06 15:32 31.64563 117.95479 22512 ft 467 kts 85°
2026-05-06 15:32 31.64925 117.99267 22512 ft 467 kts 85°
2026-05-06 15:32 31.65283 118.03011 22510 ft 467 kts 85°
2026-05-06 15:33 31.65646 118.06803 22508 ft 467 kts 85°
2026-05-06 15:33 31.66006 118.10583 22502 ft 467 kts 85°
2026-05-06 15:33 31.66366 118.14371 22501 ft 467 kts 85°
2026-05-06 15:33 31.66660 118.18164 22500 ft 466 kts 90°
2026-05-06 15:34 31.66678 118.21959 22516 ft 465 kts 92°
2026-05-06 15:34 31.66680 118.25767 22516 ft 465 kts 92°
2026-05-06 15:34 31.66683 118.29555 22515 ft 465 kts 92°
2026-05-06 15:34 31.66685 118.33340 22510 ft 464 kts 92°
2026-05-06 15:35 31.66687 118.37135 22496 ft 464 kts 92°
2026-05-06 15:35 31.66689 118.40925 22494 ft 464 kts 92°
2026-05-06 15:35 31.66691 118.44715 22496 ft 464 kts 92°
2026-05-06 15:35 31.66694 118.48505 22495 ft 464 kts 92°
2026-05-06 15:36 31.66695 118.52296 22499 ft 465 kts 92°
2026-05-06 15:36 31.66696 118.56087 22502 ft 465 kts 92°
2026-05-06 15:36 31.66693 118.59879 22504 ft 465 kts 92°
2026-05-06 15:36 31.66685 118.63672 22506 ft 465 kts 92°
2026-05-06 15:37 31.66673 118.67464 22502 ft 465 kts 92°
2026-05-06 15:37 31.66663 118.71262 22505 ft 465 kts 92°
2026-05-06 15:37 31.66724 118.75060 22507 ft 465 kts 90°
2026-05-06 15:37 31.66888 118.78803 22510 ft 466 kts 88°
2026-05-06 15:38 31.67123 118.82599 22513 ft 466 kts 87°
2026-05-06 15:38 31.67383 118.86396 22514 ft 466 kts 87°
2026-05-06 15:38 31.67635 118.90193 22516 ft 466 kts 88°
2026-05-06 15:38 31.67865 118.93986 22516 ft 466 kts 88°
2026-05-06 15:39 31.67930 118.97781 22506 ft 464 kts 96°
2026-05-06 15:39 31.67627 119.01542 22507 ft 463 kts 98°
2026-05-06 15:39 31.67304 119.05304 22506 ft 463 kts 98°
2026-05-06 15:39 31.66988 119.09069 22503 ft 463 kts 98°
2026-05-06 15:40 31.66677 119.12828 22503 ft 463 kts 98°
2026-05-06 15:40 31.66365 119.16595 22505 ft 463 kts 98°
2026-05-06 15:40 31.66050 119.20352 22505 ft 463 kts 98°
2026-05-06 15:40 31.65733 119.24111 22504 ft 463 kts 98°
2026-05-06 15:41 31.65416 119.27870 22511 ft 463 kts 98°
2026-05-06 15:41 31.65096 119.31634 22507 ft 463 kts 98°
2026-05-06 15:41 31.64776 119.35399 22503 ft 463 kts 98°
2026-05-06 15:41 31.64455 119.39159 22504 ft 463 kts 98°
2026-05-06 15:42 31.64133 119.42922 22504 ft 464 kts 98°
2026-05-06 15:42 31.63814 119.46693 22504 ft 464 kts 98°
2026-05-06 15:42 31.63495 119.50456 22505 ft 464 kts 98°
2026-05-06 15:42 31.63174 119.54221 22491 ft 464 kts 98°
2026-05-06 15:43 31.62851 119.57987 22500 ft 464 kts 98°
2026-05-06 15:43 31.62521 119.61763 22505 ft 464 kts 98°
2026-05-06 15:43 31.62186 119.65526 22507 ft 464 kts 98°
2026-05-06 15:43 31.61870 119.69297 22508 ft 465 kts 97°
2026-05-06 15:44 31.61639 119.73081 22513 ft 465 kts 96°
2026-05-06 15:44 31.61474 119.76877 22514 ft 466 kts 95°
2026-05-06 15:44 31.61341 119.80676 22515 ft 466 kts 95°
2026-05-06 15:44 31.61213 119.84475 22513 ft 466 kts 94°
2026-05-06 15:45 31.61071 119.88272 22524 ft 466 kts 95°
2026-05-06 15:45 31.60911 119.92070 22528 ft 465 kts 95°
2026-05-06 15:45 31.60736 119.95859 22533 ft 465 kts 95°
2026-05-06 15:45 31.60549 119.99638 22533 ft 465 kts 96°
2026-05-06 15:46 31.60354 120.03427 22529 ft 465 kts 96°
2026-05-06 15:46 31.60163 120.07192 22363 ft 459 kts 96°
2026-05-06 15:46 31.59982 120.10902 22026 ft 452 kts 95°
2026-05-06 15:46 31.59805 120.14572 21424 ft 449 kts 95°
2026-05-06 15:47 31.59628 120.18214 20862 ft 445 kts 95°
2026-05-06 15:47 31.59448 120.21827 20311 ft 441 kts 95°
2026-05-06 15:47 31.59269 120.25392 19776 ft 437 kts 95°
2026-05-06 15:47 31.59094 120.28943 19244 ft 434 kts 95°
2026-05-06 15:48 31.58694 120.32421 18728 ft 428 kts 105°
2026-05-06 15:48 31.57827 120.35729 18207 ft 422 kts 112°
2026-05-06 15:48 31.56855 120.38959 17658 ft 419 kts 112°
2026-05-06 15:48 31.55898 120.42164 17129 ft 415 kts 112°
2026-05-06 15:49 31.54950 120.45345 16612 ft 411 kts 112°
2026-05-06 15:49 31.54009 120.48502 16073 ft 409 kts 112°
2026-05-06 15:49 31.53074 120.51638 15547 ft 407 kts 112°
2026-05-06 15:49 31.52139 120.54763 14996 ft 405 kts 112°
2026-05-06 15:50 31.51205 120.57877 14443 ft 404 kts 111°
2026-05-06 15:50 31.50287 120.60936 13896 ft 403 kts 111°
2026-05-06 15:50 31.49348 120.64062 13282 ft 401 kts 111°
2026-05-06 15:50 31.48424 120.67135 12714 ft 398 kts 111°
2026-05-06 15:51 31.47509 120.70174 12134 ft 395 kts 111°
2026-05-06 15:51 31.46596 120.73199 11550 ft 392 kts 111°
2026-05-06 15:51 31.45690 120.76197 10957 ft 389 kts 110°
2026-05-06 15:51 31.44793 120.79169 10551 ft 381 kts 110°
2026-05-06 15:52 31.43928 120.82034 10428 ft 365 kts 110°
2026-05-06 15:52 31.43110 120.84741 10307 ft 350 kts 110°
2026-05-06 15:52 31.42312 120.87380 10193 ft 337 kts 110°
2026-05-06 15:52 31.41541 120.89915 10076 ft 325 kts 110°
2026-05-06 15:53 31.40796 120.92363 9950 ft 314 kts 110°
2026-05-06 15:53 31.40073 120.94744 9553 ft 308 kts 110°
2026-05-06 15:53 31.39361 120.97105 8871 ft 306 kts 110°
2026-05-06 15:53 31.38658 120.99438 8225 ft 302 kts 110°
2026-05-06 15:54 31.37961 121.01746 7566 ft 299 kts 110°
2026-05-06 15:54 31.37274 121.04016 7133 ft 289 kts 110°
2026-05-06 15:54 31.36627 121.06155 6964 ft 269 kts 110°
2026-05-06 15:54 31.36028 121.08142 6859 ft 252 kts 110°
2026-05-06 15:55 31.35480 121.10055 6745 ft 244 kts 103°
2026-05-06 15:55 31.35328 121.11977 6578 ft 233 kts 85°
2026-05-06 15:55 31.35565 121.13845 6168 ft 232 kts 79°
2026-05-06 15:55 31.35839 121.15706 5782 ft 231 kts 79°
2026-05-06 15:56 31.36111 121.17559 5417 ft 231 kts 80°
2026-05-06 15:56 31.36381 121.19410 5059 ft 230 kts 80°
2026-05-06 15:56 31.36649 121.21252 4702 ft 229 kts 81°
2026-05-06 15:56 31.36912 121.23080 4338 ft 227 kts 81°
2026-05-06 15:57 31.37172 121.24893 3985 ft 225 kts 81°
2026-05-06 15:57 31.37423 121.26657 3643 ft 214 kts 81°
2026-05-06 15:57 31.37663 121.28333 3359 ft 204 kts 82°
2026-05-06 15:57 31.37819 121.29963 3259 ft 203 kts 96°
2026-05-06 15:58 31.37386 121.31453 3013 ft 185 kts 129°
2026-05-06 15:58 31.36498 121.32404 2868 ft 165 kts 155°
2026-05-06 15:58 31.35462 121.32778 2705 ft 150 kts 178°
2026-05-06 15:58 31.34438 121.32835 2542 ft 146 kts 179°
2026-05-06 15:59 31.33376 121.32892 2369 ft 163 kts 179°
2026-05-06 15:59 31.32229 121.32954 2139 ft 166 kts 178°
2026-05-06 15:59 31.31075 121.33016 1921 ft 164 kts 177°
2026-05-06 15:59 31.29998 121.33075 1724 ft 146 kts 177°
2026-05-06 16:00 31.29014 121.33128 1526 ft 138 kts 176°
2026-05-06 16:00 31.28069 121.33180 1340 ft 135 kts 176°
2026-05-06 16:00 31.27141 121.33230 1165 ft 132 kts 176°
2026-05-06 16:00 31.26225 121.33280 995 ft 131 kts 176°
2026-05-06 16:01 31.25308 121.33329 823 ft 134 kts 176°
2026-05-06 16:01 31.24380 121.33380 666 ft 132 kts 175°
2026-05-06 16:01 31.23468 121.33433 522 ft 131 kts 175°
2026-05-06 16:01 31.22544 121.33483 327 ft 132 kts 175°
2026-05-06 16:02 31.21625 121.33529 145 ft 133 kts 176°
2026-05-06 16:02 31.20712 121.33579 19 ft 125 kts 176°
2026-05-06 16:02 31.20009 121.33620 9 ft 78 kts 179°
2026-05-06 16:02 31.19708 121.33627 10 ft 43 kts 178°